Tracking 20624 objects as of 28-Mar-2020
HD Live streaming from Space Station
objects crossing your sky now

METEOR 2-17 DEB

Track METEOR 2-17 DEB now!
10-day predictions


NORAD ID: 35368
Int'l Code: 1988-005AC
Perigee: 895.5 km
Apogee: 925.9 km
Inclination: 82.6 °
Period: 103.1 minutes
Semi major axis: 7281 km
RCS: 0.0006 m2 (small)
Launch date: January 30, 1988
Source: Commonwealth of Independent States (former USSR) (CIS)
Launch site: PLESETSK MISSILE AND SPACE COMPLEX (PKMTR)

Note: This is SATELLITE DEBRIS
aabbcc
Your satellite tracking list
Your tracking list is empty




NASA's NSSDC Master Catalog

Two Line Element Set (TLE):
1 35368U 88005AC  20087.32169879 +.00000206 +00000-0 +13585-3 0  9991
2 35368 082.5621 303.1147 0020869 187.7962 172.2884 13.97197728660159
Source of the keplerian elements: AFSPC